Location: Unspecified
(0.0000°N, 0.0000°E)
Time: 12:32:05
(UTC+00:00)

Hubble Space Telescope - Pass Details

Date: 05 December 2019
Orbit: 536 x 540 km, 28.5° (Epoch: 10 December)

Event Time Altitude Azimuth Distance (km) Brightness Sun altitude
Rises 18:36:15 0° 291° (WNW) 2,663 5.1 -10.5°
Reaches altitude 10° 18:38:33 10° 286° (WNW) 1,775 4.2 -11.1°
Maximum altitude 18:42:32 50° 210° (SSW) 685 1.7 -12.0°
Drops below altitude 10° 18:46:32 10° 134° (SE) 1,780 3.2 -12.9°
Enters shadow 18:48:42 - 129° (SE) 2,613 4.0 -13.4°
